Home > Weather > Mesa > Past weeks

Flag for USA Past Weather in Mesa, Arizona, USA — Yesterday and Last 2 Weeks

Now
102 °F

Scattered clouds.


Feels Like: 101 °F
Forecast: 87 / 108 °F
Wind: No wind

Location: Williams Gateway Airport

Current Time: Jul 26, 2016 at 3:02:59 PM

Latest Report: Jul 26, 2016 at 1:47 PM


Visibility: 35 mi

Pressure: 29.83 "Hg

Humidity: 21%

Dew Point: 55 °F

Location of MesaLocation

Past Weather in Mesa — Graph

°F

Mesa Temperature Yesterday

Maximum temperature yesterday: 104 °F (at 3:49 PM)
Minimum temperature yesterday: 84 °F (at 5:47 AM)
Average temperature yesterday: 92 °F

High & Low Weather Summary for the Past Weeks

 TemperatureHumidityPressure
High109 °F (Jul 22, 4:55 PM)74% (Jul 19, 5:49 AM)30.04 "Hg (Jul 19, 5:49 AM)
Low75 °F (Jul 13, 4:15 AM)9% (Jul 12, 5:47 PM)29.72 "Hg (Jul 11, 5:50 PM)
Average92 °F30%29.89 "Hg
* Reported Jul 11 1:47 PM — Jul 26 1:47 PM, Mesa, Weather by CustomWeather, © 2016

Note: Actual official high and low records may vary slightly from our data, if they occured in-between our weather recording intervals... More about our weather records

Advertising

Mesa Weather History for the Previous 24 Hours

Scroll right to see more
 ConditionsComfort  
Time TempWeatherWind HumidityBarometerVisibility
1:47 PM
Tue, Jul 26
102 °FScattered clouds.No wind21%29.83 "Hg35 mi
12:47 PM102 °FPassing clouds.3 mph23%29.86 "Hg35 mi
11:47 AM100 °FScattered clouds.5 mph24%29.89 "Hg35 mi
10:49 AM97 °FScattered clouds.6 mph27%29.91 "Hg45 mi
9:47 AM97 °FScattered clouds.6 mph27%29.91 "Hg45 mi
8:47 AM93 °FScattered clouds.No wind32%29.91 "Hg35 mi
7:51 AM90 °FScattered clouds.6 mph38%29.91 "Hg45 mi
6:47 AM88 °FScattered clouds.No wind38%29.90 "Hg45 mi
5:47 AM84 °FWarm.6 mph43%29.88 "Hg45 mi
4:57 AM88 °FClear.No wind35%29.86 "Hg20 mi
4:35 AM86 °FClear.No wind35%29.85 "Hg10 mi
4:15 AM88 °FClear.No wind33%29.85 "Hg10 mi
3:55 AM88 °FClear.3 mph33%29.85 "Hg10 mi
3:35 AM88 °FClear.No wind33%29.85 "Hg10 mi
3:15 AM88 °FClear.6 mph33%29.85 "Hg10 mi
2:55 AM88 °FClear.7 mph33%29.84 "Hg10 mi
2:35 AM90 °FClear.8 mph31%29.84 "Hg10 mi
2:15 AM90 °FClear.10 mph31%29.84 "Hg10 mi
1:55 AM88 °FClear.10 mph33%29.84 "Hg10 mi
1:35 AM90 °FClear.9 mph31%29.84 "Hg10 mi
1:15 AM88 °FClear.3 mph33%29.83 "Hg10 mi
12:55 AM88 °FClear.3 mph33%29.83 "Hg10 mi
12:35 AM90 °FClear.No wind31%29.83 "Hg10 mi
12:15 AM90 °FClear.No wind31%29.83 "Hg10 mi
11:50 PM
Mon, Jul 25
91 °FPassing clouds.5 mph30%29.85 "Hg20 mi
10:47 PM91 °FPassing clouds.6 mph30%29.85 "Hg20 mi
9:47 PM93 °FPassing clouds.10 mph28%29.85 "Hg20 mi
8:49 PM95 °FPartly cloudy.15 mph26%29.84 "Hg20 mi
7:47 PM99 °FPartly cloudy.23 mph24%29.82 "Hg20 mi
6:48 PM102 °FBroken clouds.5 mph23%29.82 "Hg35 mi
5:47 PM104 °FBroken clouds.12 mph21%29.80 "Hg35 mi
3:49 PM104 °FPassing clouds.8 mph21%29.83 "Hg45 mi
Weather by CustomWeather, © 2016

See weather overviewHow to use our weather pages